Погода в Планкене

Лихтенштейн     47°11′08″N   9°32′44″E
темп.,
°C
ветер,
м/с
пор.,
м/с
влажн.,
%
обл.,
%
осадки,
мм/ч
давл.,
гПа
погр.,
м
15 мая, сб
сб1523:00+4ююз3496100 4.7 1014118
02:00+3ю2296100 4.8 101541
05:00+2ююз239529 0.0 101452
08:00+5ю2289100 0.0 1013194
11:00+11ю115484 0.0 10091307
14:00+13зсз1348100 0.1 10071556
17:00+9зсз1182100 0.8 1008360
20:00+7ссз2299100 2.8 1009151
16 мая, вс
вс1623:00+6в0198100 3.8 101040
02:00+5з0198100 9.6 1011127
05:00+5юз0098100 2.8 101151
08:00+5ююв1296100 3.9 1010194
11:00+12юв126513 0.1 1006945
14:00+9сз2292100 1.1 1006333
17:00+8зсз1296100 4.5 1008264
20:00+7юз2396100 6.5 1009149
17 мая, пн
пн1723:00+6зюз2494100 2.7 101092
02:00+3ююз229643 2.9 101120
05:00+4ююз129599 0.1 101152
08:00+6з028971 0.7 1012356
11:00+9з137531 0.8 10121071
14:00+9зсз357075 2.2 10121276
17:00+10зюз267117 1.9 10121280
20:00+7з118637 3.0 101318
18 мая, вт
вт1823:00+4юз229352 0.3 101628
02:00+5зсз1298100 2.4 1016384
05:00+3ююз239852 2.4 1017116
08:00+5зюз129299 2.4 1017268
11:00+9зсз376445 0.8 10171508
14:00+9зсз3763100 2.1 10181597
17:00+7зсз368090 1.4 10191052
20:00+4з1398100 2.9 1022562
19 мая, ср
ср1923:00+4ююз2397100 0.7 1024272
02:00+3ююз2498100 1.3 1024233
05:00+2ю239893 0.1 1024147
08:00+4ю2292100 0.3 1023288
11:00+7зюз138378 1.2 1023750
14:00+6сз2492100 3.3 1023793
17:00+5сз1297100 4.1 1024541
20:00+5зюз0193100 5.7 102544